Weather in Bolsherechje

Russia / Omsk Oblast     56°05′54″N   74°37′21″E
temp.,
°C
wind,
m/s
gust,
m/s
humid.,
%
clouds,
%
prec.,
mm/h
press.,
hPa
HPBL,
m
14 may, fri
fri1400:00+11n358123 0.0 1022126
03:00+8n499460 0.0 1023193
06:00+7n38934 0.0 1026240
09:00+11n45584 0.0 1027632
12:00+15n343389 0.0 10271013
15:00+18nw34270 0.0 10261290
18:00+19wnw45305 0.0 10251236
21:00+14wsw45505 0.0 102556
15 may, sat
sat1500:00+13sw410525 0.0 1023142
03:00+12wsw5145999 0.1 1022255
06:00+13sw51567100 0.8 1021314
09:00+19w695812 0.3 1020485
12:00+25w68426 0.3 1019887
15:00+28w78357 0.0 10172221
18:00+27wsw68395 0.0 10161209
21:00+21sw125775 0.0 101538
16 may, sun
sun1600:00+18wsw48653 0.0 1015121
03:00+15wsw477373 0.2 1014119
06:00+15w49807 0.3 1014195
09:00+20nw68614 0.0 1015682
12:00+23nnw674885 0.0 10161401
15:00+25nw573956 0.0 10152161
18:00+25wnw584033 0.0 10152066
21:00+20sw465966 0.0 101383
17 may, mon
mon1700:00+19wsw512645 0.0 1013203
03:00+17wsw4105917 0.0 1012154
06:00+16wnw35634 0.0 101386
09:00+22nw46494 0.0 1014453
12:00+27wnw47385 0.0 10141200
15:00+29nw69302 0.0 10133034
18:00+28wnw353595 0.0 10121005
21:00+19ne8146752 0.1 1013404
18 may, tue
tue1800:00+15e368775 0.3 1013140
03:00+14s358993 0.9 1011102
06:00+15w128291 1.3 101051
09:00+19n576613 0.1 1010665
12:00+21n565991 0.1 10101407
15:00+20n556092 0.4 10101281
18:00+18ne6667100 0.8 1009868
21:00+11ene71190100 4.1 1012525